Location: Alfortville
(48.8058°N, 2.4204°E)
Time: 02:44:03
(UTC+00:00)

AIST 2D - Visible Passes

Search period start: 29 March 2023 00:00
Search period end: 08 April 2023 00:00
Orbit: 401 x 412 km, 97.0° (Epoch: 28 March)

Date Brightness Start Highest point End Pass type
(mag) Time Alt. Az. Time Alt. Az. Time Alt. Az.
01 Apr ? 21:35:56 10° N 21:36:03 11° N 21:36:03 11° N visible
03 Apr ? 21:30:43 10° N 21:31:05 13° N 21:31:05 13° N visible
04 Apr ? 22:14:41 10° NNW 22:14:53 11° NNW 22:14:53 11° NNW visible
05 Apr ? 21:25:17 10° N 21:25:54 15° N 21:25:54 15° N visible
06 Apr ? 22:09:00 10° NNW 22:09:36 13° NNW 22:09:36 13° NNW visible
07 Apr ? 21:19:39 10° NNE 21:20:30 17° N 21:20:30 17° N visible
